Darlington, SC

4:14 AM EDT on April 26, 2017 (GMT -0400)
Darlington County Jetport

Weather History for KUDG - February, 2013

Change the Weather History Date:

Sunday, February 10, 2013

  Actual Average (KFLO) Record (KFLO)
Temperature  
Mean Temperature 45 °F -  
Max Temperature 60 °F 54 °F 79 °F (1965)
Min Temperature 30 °F 31 °F 16 °F (1979)
Degree Days  
Heating Degree Days 20    
Moisture  
Dew Point 35 °F    
Average Humidity 68    
Maximum Humidity 93    
Minimum Humidity 38    
Precipitation  
Precipitation 0.10 in - - ()
Sea Level Pressure  
Sea Level Pressure 30.36 in    
Wind  
Wind Speed 3 mph (ESE)    
Max Wind Speed 12 mph    
Max Gust Speed -    
Averages and records for this station are not official NWS values.
T = Trace of Precipitation, MM = Missing Value Source: NWS Daily Summary

Daily Weather History Graph

Daily Weather History Graph

Search for Another Location

Airport or City:

Trip Planner

Search our weather history database for the weather conditions in past years. The results will help you decide how hot, cold, wet, or windy it might be!

Date:

Astronomy

Feb. 10, 2013 Rise Set
Actual Time 7:09 AM EST 5:58 PM EST
Civil Twilight 6:43 AM EST 6:24 PM EST
Nautical Twilight 6:13 AM EST 6:54 PM EST
Astronomical Twilight 5:44 AM EST 7:23 PM EST
Moon 7:01 AM EST (2/10) 6:43 PM EST (2/10)
Length of Visible Light 11h 40m
Length of Day
10h 48m
New Moon, 0% of the Moon is Illuminated
Feb 10
New Moon
Feb 17
First Quarter
Feb 25
Full
Mar 4
Last Quarter
Mar 11
New

Hourly Weather History & Observations

Time (EST) Temp. Windchill Dew Point Humidity Pressure Visibility Wind Dir Wind Speed Gust Speed Precip Events Conditions
12:15 AM 33.8 °F - 28.4 °F 81% 30.36 in - Calm Calm - N/A   Clear
12:35 AM 35.6 °F - 30.2 °F 81% 30.36 in - Calm Calm - N/A   Clear
12:55 AM 35.6 °F - 30.2 °F 81% 30.37 in - Calm Calm - N/A   Clear
1:15 AM 33.8 °F - 28.4 °F 81% 30.37 in - Calm Calm - N/A   Clear
1:35 AM 32.0 °F - 26.6 °F 80% 30.38 in - Calm Calm - N/A   Clear
1:55 AM 32.0 °F 28.7 °F 26.6 °F 80% 30.38 in - North 3.5 mph - N/A   Clear
2:15 AM 33.8 °F - 26.6 °F 75% 30.38 in - Calm Calm - N/A   Clear
2:35 AM 32.0 °F - 26.6 °F 80% 30.38 in - Calm Calm - N/A   Clear
2:55 AM 33.8 °F - 30.2 °F 87% 30.37 in - Calm Calm - N/A   Unknown
3:15 AM 32.0 °F 28.7 °F 28.4 °F 87% 30.37 in - ENE 3.5 mph - N/A   Unknown
3:35 AM 32.0 °F - 28.4 °F 87% 30.38 in - Calm Calm - N/A   Unknown
3:55 AM 30.2 °F - 28.4 °F 93% 30.38 in - Calm Calm - N/A   Unknown
4:15 AM 30.2 °F - 28.4 °F 93% 30.39 in - Calm Calm - N/A   Unknown
4:35 AM 30.2 °F - 26.6 °F 86% 30.39 in - Calm Calm - N/A   Unknown
4:55 AM 30.2 °F - 28.4 °F 93% 30.39 in - Calm Calm - N/A   Unknown
5:15 AM 32.0 °F - 28.4 °F 87% 30.38 in - Calm Calm - N/A   Unknown
5:35 AM 32.0 °F - 28.4 °F 87% 30.39 in - Calm Calm - N/A   Unknown
5:55 AM 33.8 °F - 28.4 °F 81% 30.39 in - Calm Calm - N/A   Clear
6:15 AM 32.0 °F - 28.4 °F 87% 30.40 in - Calm Calm - N/A   Unknown
6:35 AM 33.8 °F 30.8 °F 28.4 °F 81% 30.40 in - NE 3.5 mph - N/A   Clear
6:55 AM 33.8 °F - 28.4 °F 81% 30.41 in - Calm Calm - N/A   Clear
7:15 AM 33.8 °F - 30.2 °F 87% 30.42 in - Calm Calm - N/A   Unknown
7:35 AM 33.8 °F 29.6 °F 28.4 °F 81% 30.41 in - ENE 4.6 mph - N/A   Clear
7:55 AM 35.6 °F 32.8 °F 30.2 °F 81% 30.44 in - NNE 3.5 mph - N/A   Clear
8:15 AM 35.6 °F 31.7 °F 30.2 °F 81% 30.45 in - NNW 4.6 mph - N/A   Clear
8:35 AM 37.4 °F 34.9 °F 28.4 °F 70% 30.48 in - West 3.5 mph - N/A   Clear
8:55 AM 39.2 °F 33.6 °F 30.2 °F 70% 30.46 in - NE 8.1 mph - N/A   Clear
9:15 AM 41.0 °F 39.0 °F 30.2 °F 65% 30.46 in - ENE 3.5 mph - N/A   Clear
9:35 AM 42.8 °F 38.6 °F 28.4 °F 57% 30.47 in - East 6.9 mph - N/A   Clear
9:55 AM 42.8 °F 38.0 °F 28.4 °F 57% 30.46 in - East 8.1 mph - N/A   Clear
10:15 AM 44.6 °F 41.4 °F 28.4 °F 53% 30.46 in - ESE 5.8 mph - N/A   Clear
10:35 AM 46.4 °F 42.9 °F 28.4 °F 50% 30.45 in - East 6.9 mph - N/A   Clear
10:55 AM 48.2 °F - 30.2 °F 50% 30.46 in - ESE 8.1 mph - N/A   Clear
11:15 AM 50.0 °F - 30.2 °F 47% 30.47 in - ESE 3.5 mph - N/A   Clear
11:35 AM 51.8 °F - 30.2 °F 44% 30.46 in - ENE 3.5 mph - N/A   Clear
11:55 AM 53.6 °F - 32.0 °F 44% 30.45 in - SSE 4.6 mph - N/A   Clear
12:15 PM 53.6 °F - 30.2 °F 41% 30.45 in - SSE 5.8 mph - N/A   Clear
12:35 PM 55.4 °F - 30.2 °F 38% 30.41 in - SSE 4.6 mph - N/A   Clear
12:55 PM 55.4 °F - 35.6 °F 47% 30.38 in - SE 10.4 mph - N/A   Clear
1:15 PM 57.2 °F - 35.6 °F 44% 30.38 in - ESE 6.9 mph - N/A   Clear
1:35 PM 57.2 °F - 37.4 °F 48% 30.39 in - SSE 8.1 mph - N/A   Clear
1:55 PM 59.0 °F - 37.4 °F 45% 30.37 in - ESE 10.4 mph - N/A   Clear
2:15 PM 59.0 °F - 37.4 °F 45% 30.35 in - SE 10.4 mph - N/A   Clear
2:35 PM 60.8 °F - 39.2 °F 45% 30.34 in - SE 9.2 mph - N/A   Clear
2:55 PM 60.8 °F - 39.2 °F 45% 30.32 in - SE 9.2 mph - N/A   Clear
3:15 PM 59.0 °F - 39.2 °F 48% 30.32 in - ESE 10.4 mph - N/A   Mostly Cloudy
3:35 PM 60.8 °F - 39.2 °F 45% 30.32 in - SE 11.5 mph - N/A   Overcast
3:55 PM 59.0 °F - 39.2 °F 48% 30.31 in - ESE 8.1 mph - N/A   Mostly Cloudy
4:15 PM 59.0 °F - 39.2 °F 48% 30.31 in - ESE 8.1 mph - N/A   Mostly Cloudy
4:35 PM 59.0 °F - 41.0 °F 51% 30.31 in - ESE 6.9 mph - N/A   Overcast
4:55 PM 59.0 °F - 41.0 °F 51% 30.30 in - ESE 6.9 mph - N/A   Mostly Cloudy
5:15 PM 59.0 °F - 41.0 °F 51% 30.30 in - ESE 6.9 mph - N/A   Overcast
5:35 PM 57.2 °F - 42.8 °F 59% 30.29 in - SE 8.1 mph - N/A   Overcast
5:55 PM 57.2 °F - 44.6 °F 63% 30.27 in - SE 10.4 mph - N/A   Overcast
6:15 PM 57.2 °F - 44.6 °F 63% 30.27 in - SE 9.2 mph - N/A   Overcast
6:35 PM 57.2 °F - 44.6 °F 63% 30.27 in - SE 10.4 mph - N/A   Overcast
6:55 PM 57.2 °F - 44.6 °F 63% 30.28 in - SE 8.1 mph - N/A   Overcast
7:15 PM 55.4 °F - 44.6 °F 67% 30.27 in - SE 9.2 mph - N/A   Overcast
7:35 PM 55.4 °F - 44.6 °F 67% 30.27 in - SE 8.1 mph - N/A   Overcast
7:55 PM 55.4 °F - 44.6 °F 67% 30.26 in - SE 10.4 mph - N/A   Mostly Cloudy
8:15 PM 55.4 °F - 44.6 °F 67% 30.26 in - SE 9.2 mph - N/A   Partly Cloudy
8:35 PM 55.4 °F - 44.6 °F 67% 30.25 in - ESE 5.8 mph - N/A   Scattered Clouds
8:55 PM 55.4 °F - 44.6 °F 67% 30.26 in - ESE 6.9 mph - N/A   Mostly Cloudy
9:15 PM 55.4 °F - 44.6 °F 67% 30.29 in - ESE 4.6 mph - N/A   Overcast
9:35 PM 53.6 °F - 44.6 °F 72% 30.29 in - ESE 3.5 mph - N/A   Overcast
9:55 PM 53.6 °F - 44.6 °F 72% 30.30 in - Calm Calm - N/A   Overcast
10:15 PM 53.6 °F - 46.4 °F 77% 30.30 in - ENE 3.5 mph - N/A   Mostly Cloudy
10:35 PM 53.6 °F - 48.2 °F 82% 30.31 in - NNE 4.6 mph - 0.01 in   Scattered Clouds
10:55 PM 51.8 °F - 48.2 °F 88% 30.31 in - NE 4.6 mph - 0.03 in   Unknown
11:15 PM 51.8 °F - 46.4 °F 82% 30.29 in - East 5.8 mph - 0.03 in   Overcast
11:35 PM 51.8 °F - 46.4 °F 82% 30.27 in - ESE 9.2 mph - 0.05 in   Overcast
11:55 PM 51.8 °F - 46.4 °F 82% 30.26 in - SE 10.4 mph - 0.07 in   Overcast